Theta_e
313 315 318 315 316 316 315 316 315 314 314 313 312 312 313 311 311 313 313 313 317 322 328 328 326 327 323 325 334 334 335 336 335 336 338 339 339 339 340 339 339 340 339 335 334 335 334 334 334 333 334 334 335 335 335 335 335 336 336 336 335 335 335 335 335 335 333 331 330 329 329 328 328 328 328 328 329 330 332 333 332 332 333 334 334 334
314 315 317 315 315 315 313 314 313 313 312 312 313 312 312 311 312 313 312 313 316 319 323 324 326 326 322 327 335 334 336 336 335 335 335 336 337 338 339 340 340 339 337 336 335 334 334 334 333 333 334 334 334 334 334 334 334 335 336 336 335 335 335 335 335 334 332 330 329 327 326 325 327 328 327 326 327 327 328 329 329 330 331 333 334 334
315 316 315 314 315 314 313 313 312 312 313 313 312 311 311 312 313 313 314 313 314 319 324 324 325 324 321 328 337 336 336 336 333 334 334 333 334 336 338 339 339 339 338 339 338 334 333 334 333 333 333 333 334 334 333 334 334 335 335 336 335 335 335 335 334 333 330 329 328 327 327 327 328 329 327 327 328 328 327 327 327 327 328 331 334 335
315 316 315 314 314 314 314 314 313 313 313 313 312 312 312 313 312 312 315 315 314 318 323 321 322 322 319 324 332 332 332 333 333 333 333 333 333 333 335 337 338 339 340 339 339 336 333 332 332 332 332 333 333 333 333 333 334 334 335 335 335 335 334 334 333 331 329 328 329 329 329 330 331 331 331 330 330 330 330 329 328 327 328 330 333 335
314 315 314 314 314 315 315 315 314 313 314 316 314 312 313 312 312 313 314 315 316 317 317 315 316 320 320 321 324 326 328 330 332 334 335 333 333 332 333 335 336 338 338 338 339 337 333 331 332 331 332 333 333 333 333 333 333 334 334 334 334 334 333 333 332 329 328 329 330 329 330 331 332 333 333 333 333 333 332 331 330 329 329 329 332 334
314 314 312 314 315 314 314 315 315 314 315 316 315 314 314 314 313 313 313 313 316 317 316 313 312 322 331 325 320 325 330 330 329 333 334 332 332 331 332 333 335 336 336 336 337 337 334 332 331 331 332 332 332 333 333 333 333 333 333 333 333 334 333 333 332 328 328 329 330 331 331 332 333 333 333 333 333 333 333 333 332 331 330 329 331 332
314 314 313 314 315 314 314 314 314 315 314 314 318 316 314 315 314 313 313 311 314 316 315 313 313 322 331 328 322 326 332 332 328 331 332 331 331 331 330 331 333 335 334 335 336 337 336 332 331 331 331 332 332 333 333 333 333 332 332 332 332 332 332 332 331 328 328 329 331 332 332 332 332 332 332 332 332 332 333 334 333 333 331 330 330 330
316 314 314 315 314 315 315 314 315 316 313 316 321 318 314 314 313 314 313 311 315 316 316 320 318 315 319 324 325 325 331 334 329 330 330 329 330 330 329 328 330 332 333 334 335 337 337 333 331 331 331 332 333 333 333 332 332 332 332 331 332 331 331 330 329 328 328 328 331 332 332 331 330 332 332 332 332 332 334 335 335 334 332 331 331 330
317 315 315 316 315 315 317 318 317 315 316 321 321 316 315 315 314 314 311 313 317 314 315 323 317 312 319 329 328 324 328 334 334 332 328 327 328 328 328 328 327 330 332 333 333 336 336 333 332 333 332 333 333 333 333 333 333 332 331 331 331 331 330 330 329 329 329 329 330 331 330 330 329 332 333 333 333 334 335 336 336 336 333 332 331 331
315 316 318 317 316 317 320 323 318 314 318 320 317 315 317 322 326 321 314 314 317 313 315 320 315 312 321 330 324 319 324 332 335 332 326 326 326 326 328 327 327 328 330 331 332 334 334 333 333 333 333 333 333 333 333 333 333 332 332 331 331 331 330 330 330 330 330 330 331 330 329 328 329 332 334 334 334 334 336 337 337 337 336 334 333 332
313 317 318 316 317 318 320 321 317 315 316 315 315 314 316 324 328 329 330 321 314 315 317 318 317 312 316 325 324 320 327 332 330 329 329 327 326 325 326 326 326 328 329 331 332 333 332 332 333 333 333 333 332 333 333 333 333 332 332 331 331 331 331 330 330 330 331 330 330 330 328 327 328 331 335 335 335 335 335 336 337 338 338 336 335 333
316 315 318 319 320 318 316 317 316 316 313 313 319 316 315 322 321 325 334 323 312 316 319 320 319 313 313 324 327 324 328 329 326 329 332 331 329 326 324 325 325 327 329 330 331 333 334 333 333 333 333 333 333 332 332 332 332 332 332 332 331 331 331 331 330 329 329 329 329 328 328 328 328 331 335 335 335 335 335 336 337 337 338 338 336 334
320 317 317 318 320 317 315 317 318 317 314 314 320 315 313 320 319 319 327 322 316 320 320 318 317 313 314 321 326 326 324 325 325 328 330 330 330 326 324 324 324 326 329 331 332 333 336 336 333 332 332 333 332 333 333 332 332 332 333 332 332 331 331 331 331 329 328 327 328 328 329 329 329 331 335 336 335 335 335 335 337 337 338 338 337 335
321 322 320 316 319 319 316 317 316 319 320 315 317 316 314 317 316 319 327 322 319 320 318 318 318 316 317 321 327 328 322 322 324 323 323 323 324 325 325 324 323 327 329 330 332 333 335 336 332 332 333 332 333 333 333 333 332 332 332 332 332 332 332 331 330 330 328 328 327 328 329 329 330 333 335 336 335 335 335 336 337 337 337 338 338 336
320 322 325 320 322 321 315 316 316 319 322 318 319 319 317 321 319 321 326 320 318 321 318 316 318 319 320 322 328 330 328 328 327 327 326 322 321 321 323 324 325 329 331 330 332 333 334 334 332 332 333 333 333 333 333 333 333 333 332 332 332 332 332 331 331 330 329 328 328 328 329 330 331 333 335 336 335 334 335 336 337 337 338 338 338 337
318 321 328 320 318 319 317 317 316 316 320 320 321 317 314 322 321 319 324 323 320 321 320 319 321 326 324 323 330 333 331 333 333 333 333 330 327 323 324 327 327 329 331 331 332 333 334 332 331 332 332 333 333 333 334 334 333 334 333 333 333 332 332 332 331 331 329 329 329 329 330 331 333 335 336 335 334 333 335 337 338 338 338 338 338 339
317 323 330 321 317 319 316 317 316 316 322 320 316 317 317 318 317 318 322 325 321 319 324 323 321 326 323 322 335 337 330 334 337 337 336 332 331 329 329 329 328 329 330 332 332 332 334 333 331 332 332 333 333 333 334 334 334 335 334 334 334 333 333 332 332 332 331 331 331 331 332 333 334 335 335 334 333 334 336 338 339 338 337 337 338 339
318 319 324 320 318 319 316 316 316 316 320 320 316 320 319 315 320 323 320 322 324 322 326 324 318 321 321 324 337 335 326 333 339 340 338 331 331 334 332 329 329 328 329 331 332 332 334 333 331 332 332 332 333 333 334 334 334 335 334 334 334 333 334 333 333 332 332 332 332 332 333 333 333 334 333 333 334 335 338 339 339 337 336 335 337 339
320 319 325 322 316 321 322 317 319 322 319 316 316 320 318 316 325 326 317 319 322 321 326 329 325 323 322 327 335 329 328 337 335 337 336 332 335 336 332 329 329 329 330 332 334 334 334 334 331 331 332 332 333 334 334 334 334 334 334 334 334 334 335 334 334 334 334 334 333 334 334 334 334 334 334 334 336 337 339 339 338 337 336 336 336 338
324 321 327 327 318 321 327 321 323 331 327 319 317 318 320 320 322 322 320 322 321 322 327 327 324 325 325 330 334 327 332 339 335 337 337 334 337 333 329 330 329 330 332 333 333 334 334 333 331 331 332 333 334 334 334 334 334 334 335 335 335 334 334 335 335 335 335 334 335 335 335 335 335 335 335 336 337 339 339 339 339 337 337 336 336 337
328 323 327 333 325 322 328 324 321 324 324 322 320 318 319 320 320 319 319 320 320 323 327 323 322 330 334 332 333 330 332 336 335 337 335 333 332 329 328 330 330 330 332 332 333 333 334 333 330 330 332 332 333 334 333 334 334 334 334 334 334 334 334 335 334 335 335 335 335 335 335 335 335 335 336 337 339 339 339 339 339 338 338 338 337 337
329 327 328 333 330 327 331 325 318 319 320 320 322 321 319 318 318 317 320 324 322 321 326 325 321 329 337 332 330 329 329 330 329 329 330 330 328 327 329 330 331 331 330 332 332 332 334 333 329 329 332 331 332 332 333 333 333 334 334 334 335 335 335 335 335 335 335 335 335 335 335 335 336 337 338 339 339 339 339 339 339 338 338 338 337 338
326 326 327 329 329 328 329 323 318 319 318 319 323 322 322 323 322 322 325 329 327 322 325 326 320 328 340 332 327 328 327 324 322 322 325 326 326 327 327 329 332 332 331 331 331 332 334 331 328 329 330 331 332 332 332 333 333 334 334 334 335 335 335 335 335 336 336 335 336 336 336 336 337 338 339 339 339 339 338 338 338 338 338 338 338 338
326 326 326 326 327 325 324 324 322 322 322 324 325 322 322 325 325 325 325 325 327 327 325 322 323 333 340 330 325 327 327 324 323 322 322 324 326 326 324 326 330 330 331 331 330 332 333 330 328 329 329 330 331 331 332 333 333 333 334 334 335 335 335 336 335 336 336 336 336 337 337 338 338 339 340 340 339 340 339 338 338 339 338 338 338 338
324 328 326 324 325 324 324 329 330 330 327 325 324 323 322 323 323 327 328 325 329 332 325 321 328 333 330 324 323 325 326 326 325 322 322 322 326 327 325 324 326 327 330 331 331 332 334 333 332 330 329 329 330 331 332 332 333 333 334 334 335 335 335 336 336 336 336 337 337 337 338 338 339 339 340 340 340 340 340 339 339 339 338 338 338 338
323 328 327 323 325 324 324 327 329 330 328 323 323 322 321 323 324 328 330 327 331 334 327 325 330 329 323 322 323 323 326 329 328 325 324 322 323 327 328 326 326 328 329 330 330 332 333 334 334 331 329 329 330 331 331 332 333 333 334 335 335 335 335 335 336 337 337 338 338 338 339 339 340 340 340 340 340 340 340 340 339 339 339 339 338 338
326 327 327 328 329 326 325 327 326 325 326 324 323 322 322 324 324 326 326 326 329 331 328 328 328 327 326 325 324 323 324 329 332 329 326 324 322 324 326 329 331 331 332 331 329 330 332 333 334 332 330 329 330 331 331 332 332 333 334 335 335 335 335 336 336 337 337 338 338 338 339 340 340 340 340 340 340 340 340 340 339 339 338 339 338 337
323 323 326 329 330 327 327 328 327 324 324 323 320 321 323 325 324 325 325 325 327 327 327 330 329 326 327 325 324 325 324 328 333 330 327 326 324 323 325 330 333 332 333 334 331 330 332 333 333 333 330 328 330 331 331 332 332 333 334 334 335 335 335 336 337 337 337 338 338 339 339 340 340 340 340 340 339 339 340 340 339 339 338 338 338 337
320 322 327 326 325 326 325 324 325 324 323 323 321 321 323 323 324 324 324 324 326 326 325 327 327 326 326 325 324 325 325 328 331 330 327 327 330 331 329 329 332 331 333 337 335 331 331 331 332 333 330 328 329 330 331 331 332 332 333 333 334 334 335 335 336 337 338 337 338 339 338 339 339 339 340 339 338 339 339 339 340 339 337 337 337 337
319 323 326 322 320 321 320 319 320 320 321 321 321 322 322 322 323 323 322 323 324 324 323 324 326 325 324 323 324 326 330 333 333 331 331 331 334 337 334 329 328 328 330 335 335 332 330 330 331 332 331 328 329 330 330 330 331 332 332 333 333 333 334 335 335 336 336 336 337 338 337 337 337 337 337 338 338 338 338 339 339 339 338 337 337 337
317 319 322 319 317 317 317 318 318 318 320 320 319 321 322 322 323 321 320 321 322 322 322 324 326 325 323 326 328 328 331 334 332 333 338 336 333 337 340 333 328 326 326 328 332 332 332 330 330 331 332 330 328 329 330 330 331 331 332 332 332 333 333 333 334 334 334 335 336 336 335 335 335 335 335 336 336 337 337 338 338 338 338 337 337 337
317 319 321 319 318 317 317 319 319 317 319 320 320 322 322 321 321 319 319 322 323 323 323 324 325 325 326 330 329 325 325 327 328 332 339 339 335 337 343 339 331 327 325 324 328 330 331 332 332 332 331 329 328 329 330 330 331 331 331 332 332 332 332 332 333 333 333 334 334 334 334 334 334 334 335 335 335 336 337 337 337 337 337 337 337 337
318 319 319 317 317 317 314 315 317 317 318 318 319 319 319 319 318 317 316 318 319 320 321 321 322 323 326 328 326 324 325 325 325 328 335 339 337 338 345 344 336 332 329 327 328 329 329 330 329 327 326 326 327 329 329 330 330 330 331 331 331 331 332 332 332 332 332 333 333 332 332 333 333 333 334 334 335 335 336 337 336 337 337 337 337 337
319 317 317 316 316 316 314 314 316 316 314 314 315 316 316 316 316 316 316 317 318 320 321 321 321 323 325 325 323 323 325 324 323 324 329 334 336 336 341 346 341 334 331 331 330 330 332 330 325 322 323 325 326 328 328 329 329 330 330 330 330 330 331 331 331 331 331 331 331 331 331 331 332 333 333 334 334 335 336 336 336 336 336 336 336 336
317 316 316 316 315 316 316 314 314 315 314 313 315 317 316 316 318 317 317 318 319 321 322 322 322 323 324 323 322 321 321 322 323 325 326 330 331 330 333 342 343 336 332 331 329 329 330 328 323 319 321 324 325 325 326 326 327 328 327 328 329 329 329 330 330 330 330 330 330 330 330 330 331 332 333 333 334 335 335 335 335 336 336 336 336 336
316 315 315 315 315 316 316 314 314 316 314 312 314 314 312 315 317 316 315 316 316 319 320 320 320 320 321 322 322 322 321 322 325 327 326 327 329 330 331 337 339 335 333 332 331 327 324 322 320 320 321 322 323 323 324 324 325 325 325 326 326 327 327 328 329 329 329 329 330 330 330 330 330 331 331 332 333 333 334 335 335 335 336 335 335 335
314 314 313 315 314 314 315 316 315 315 314 312 312 310 309 311 312 312 312 313 314 315 317 316 316 317 318 319 320 321 322 325 327 326 324 325 327 328 329 330 330 330 329 328 327 324 321 320 320 320 321 322 322 323 323 323 323 324 324 324 324 325 325 325 326 326 327 327 327 328 328 329 329 330 331 331 332 333 334 334 334 335 335 335 335 334
313 313 313 314 314 313 313 315 315 314 314 313 311 312 315 317 316 315 315 314 314 316 316 315 315 315 316 317 319 320 323 326 326 324 324 325 326 326 328 329 329 327 325 323 322 321 320 321 320 320 322 322 323 323 323 324 324 324 325 325 325 325 325 325 325 325 325 325 325 325 326 327 328 329 330 331 331 332 333 333 334 334 334 334 334 334
312 312 312 313 314 314 314 315 315 314 313 313 314 317 319 318 316 317 318 315 315 317 317 317 317 318 318 318 319 321 324 325 324 322 325 327 327 326 327 328 328 326 322 322 322 321 321 321 321 322 323 323 323 323 323 324 324 324 326 326 326 326 326 326 326 325 325 325 325 325 325 326 326 327 328 330 330 331 332 332 332 333 333 333 333 333
312 311 312 313 314 314 314 315 314 313 314 315 316 318 319 316 314 316 317 317 317 317 318 318 318 318 318 319 320 321 323 324 323 322 324 327 327 326 325 325 326 325 323 322 324 323 322 322 321 322 323 323 323 323 322 322 322 323 324 326 326 327 327 327 327 327 326 326 325 325 325 325 326 327 328 328 329 330 331 331 331 332 332 332 333 333
313 312 312 313 314 314 313 314 313 313 314 315 315 317 317 315 315 317 318 318 317 316 316 317 317 317 317 319 320 320 321 321 320 320 321 322 322 324 324 324 323 322 322 322 323 323 321 320 320 322 322 322 323 323 322 322 323 324 324 324 325 327 327 327 328 328 327 327 327 326 326 325 326 326 327 328 328 329 330 330 330 331 331 331 331 331
312 312 311 311 313 313 313 314 313 312 313 315 318 318 315 315 318 320 318 316 315 314 314 316 316 316 317 319 320 319 318 318 318 318 318 319 319 321 323 323 323 323 322 322 322 321 320 319 319 321 321 321 322 322 322 323 324 323 322 321 322 324 325 326 327 327 327 327 327 326 327 326 325 326 327 328 328 328 329 329 329 330 330 330 330 329
312 312 312 311 312 313 313 313 313 312 312 314 315 315 315 315 318 317 314 312 313 312 313 315 315 316 317 318 318 318 317 317 317 317 318 318 319 319 321 323 324 323 322 321 321 321 319 319 319 320 320 321 322 322 322 322 322 321 322 321 322 323 324 325 326 326 327 327 327 327 326 326 326 326 328 328 328 328 328 328 328 328 328 328 329 328
311 311 313 312 311 311 312 313 314 316 316 314 311 312 315 315 313 314 313 312 312 312 313 315 315 316 317 318 317 317 317 317 317 317 318 318 319 319 321 322 324 323 321 320 320 320 319 318 318 319 320 321 322 321 321 321 320 320 322 323 324 324 324 325 325 325 326 326 326 325 325 325 326 326 327 328 328 327 327 327 327 327 327 327 327 327
310 310 312 312 310 311 312 313 315 316 315 312 309 310 313 313 311 313 313 312 311 312 314 315 315 315 316 317 317 316 317 317 317 317 317 318 318 319 320 321 321 321 320 319 319 319 318 318 319 319 320 321 321 321 321 321 320 320 322 323 323 323 324 324 324 325 325 325 324 324 324 324 324 325 326 327 327 326 326 326 326 326 326 326 326 326
311 311 310 310 312 313 310 310 311 310 310 310 310 311 312 312 311 310 311 311 312 313 314 315 315 315 315 316 316 316 316 316 317 317 318 318 318 319 320 321 320 319 318 318 317 317 318 319 319 319 319 319 320 321 321 321 321 321 322 322 322 322 323 323 323 323 323 323 324 324 324 323 322 323 324 324 325 325 325 325 325 325 325 325 325 325
312 312 310 310 312 311 309 310 313 313 312 313 312 311 310 309 308 309 311 313 313 313 314 315 315 315 315 315 315 315 315 316 316 317 317 318 319 319 319 320 320 318 317 316 316 317 318 318 319 319 319 319 320 321 321 322 321 321 321 321 321 322 322 321 321 320 320 320 321 321 322 322 322 322 323 323 323 323 323 324 324 323 324 324 324 324
309 311 310 310 310 309 307 309 311 312 311 311 309 308 307 307 308 310 312 313 313 313 314 314 314 314 314 314 315 315 314 315 316 317 318 318 319 319 318 318 319 318 317 316 316 317 318 318 318 319 318 319 320 320 321 321 321 321 321 321 320 321 320 319 319 319 319 318 318 318 319 320 321 321 322 323 323 323 323 323 323 323 324 324 325 325
308 309 309 310 310 309 307 307 307 308 307 307 308 309 308 309 311 311 311 312 312 313 314 314 315 314 314 314 314 315 314 313 314 316 317 319 320 321 320 317 315 316 316 316 316 317 317 318 318 318 319 319 320 320 320 320 320 321 321 320 320 320 319 318 318 319 319 318 318 317 317 317 318 318 319 320 320 320 321 322 322 323 323 323 324 324
307 306 307 308 308 307 306 305 306 306 305 305 308 308 308 309 310 310 311 311 312 312 314 314 314 314 315 314 314 314 314 313 311 313 316 318 319 320 319 317 314 314 315 316 316 316 316 317 318 318 318 318 318 319 320 320 320 321 320 320 319 318 316 315 316 318 319 318 317 317 317 317 317 316 316 317 317 317 318 318 319 320 320 321 322 322
304 304 305 306 305 305 304 304 306 307 306 306 306 306 306 307 309 309 309 310 311 312 313 314 314 314 315 314 314 314 314 312 311 311 313 316 316 315 315 315 315 314 314 315 316 316 316 317 317 318 317 317 318 319 320 320 320 320 320 319 318 316 313 312 314 317 318 318 318 318 317 316 315 314 314 315 315 315 316 316 316 316 317 318 320 321
Wind_Speed
1 2 4 6 7 6 7 7 6 3 3 2 0 2 4 4 7 9 8 6 4 4 6 9 11 16 17 10 5 5 5 7 8 7 7 8 7 7 7 7 7 8 7 5 8 12 15 17 18 19 20 19 18 19 20 22 24 24 24 23 22 20 20 20 19 18 17 16 14 12 11 10 9 10 11 9 8 8 9 9 7 7 7 7 8 10
1 4 8 8 8 7 6 6 5 2 1 2 1 3 5 4 8 11 9 8 2 4 5 4 7 15 16 7 3 6 7 11 12 11 11 11 10 7 7 9 9 7 4 4 6 9 13 15 17 19 20 20 20 21 22 23 24 24 24 25 24 22 20 19 19 18 17 16 14 13 12 11 11 12 12 11 10 9 9 10 9 8 7 7 8 8
3 7 12 9 6 6 5 5 5 3 2 2 1 1 4 3 5 10 9 7 1 5 4 3 6 13 13 5 4 8 10 11 12 14 13 12 11 9 9 10 10 8 6 6 6 8 13 16 17 19 20 22 22 22 23 23 24 25 25 25 25 24 20 18 18 19 17 14 13 13 12 11 10 11 12 11 10 10 10 10 10 10 9 9 9 9
4 8 9 5 6 6 3 4 5 1 1 3 3 1 5 4 1 5 5 3 0 3 2 3 3 8 8 3 5 10 10 7 7 11 10 8 10 11 10 9 9 10 9 8 7 7 11 15 17 19 21 23 23 22 23 24 25 26 26 26 25 24 22 19 19 19 17 15 14 14 13 10 9 9 10 10 10 10 11 11 11 11 11 11 10 10
9 8 3 1 5 7 3 2 4 2 4 4 6 5 6 7 5 7 6 5 4 3 1 4 2 6 5 5 8 6 5 7 6 8 10 8 8 7 7 8 9 10 9 9 9 8 9 13 17 20 21 23 24 24 25 26 27 27 27 27 26 25 24 22 21 19 18 18 17 15 14 12 10 9 9 9 9 10 10 12 12 12 12 12 11 11
11 8 4 3 3 5 4 5 3 5 3 4 5 10 11 10 8 8 6 5 5 5 2 4 0 6 5 5 9 4 3 9 6 7 12 11 8 7 8 10 9 9 9 9 9 8 9 12 16 19 21 23 24 26 27 27 27 27 28 28 27 26 26 25 22 20 20 20 18 16 15 13 11 11 11 10 10 9 9 10 11 12 12 12 12 11
6 4 5 6 6 4 4 5 4 8 4 3 5 9 9 7 7 8 5 1 1 4 3 2 4 5 6 4 8 3 5 9 5 7 13 10 9 10 10 10 10 9 9 9 9 7 8 12 15 17 22 25 26 28 28 27 27 27 27 27 27 27 27 26 24 22 22 21 19 17 16 14 12 12 12 12 11 10 10 10 10 11 10 11 12 11
3 2 3 5 4 5 5 4 6 8 6 4 7 3 2 5 7 8 5 4 4 4 4 3 3 3 5 5 6 1 4 8 6 10 12 10 11 12 12 11 11 11 10 10 9 9 9 12 16 19 23 27 28 27 27 26 27 28 28 27 27 27 26 26 25 25 24 23 22 19 17 16 15 15 14 12 12 11 10 10 10 9 9 9 10 11
3 3 5 6 4 5 5 6 7 8 5 7 8 3 3 4 5 4 5 5 3 2 5 5 1 2 5 6 5 3 2 7 8 12 13 13 14 13 13 13 12 11 11 11 11 11 11 14 20 23 24 26 27 27 27 28 28 27 27 26 26 26 27 26 26 26 25 25 23 21 19 18 17 16 15 13 13 12 11 10 10 9 9 9 10 11
3 4 6 7 4 5 7 7 7 9 5 6 3 1 2 2 2 1 3 4 1 1 5 5 3 3 5 5 3 2 1 7 9 11 11 12 13 13 13 14 12 9 9 10 11 11 13 18 23 23 22 23 26 27 28 28 28 26 26 26 26 27 27 27 27 27 27 26 24 22 21 20 19 18 17 15 15 14 13 12 12 11 10 10 11 11
5 1 2 4 4 6 6 6 6 9 7 3 2 2 4 5 4 3 2 3 1 3 6 7 7 5 5 5 3 3 4 7 8 8 9 9 10 12 12 13 12 9 9 10 11 10 13 17 19 19 19 20 23 26 26 26 27 27 27 26 26 27 27 27 28 27 27 26 25 24 24 23 21 20 18 17 17 16 15 14 14 13 12 11 11 11
6 3 1 3 4 4 2 4 3 2 2 1 2 1 4 6 4 4 4 2 2 6 6 6 5 5 4 6 5 6 6 6 7 8 9 10 11 12 12 12 11 10 9 9 10 9 9 11 13 16 18 19 21 24 25 26 26 27 28 28 27 27 27 27 27 28 28 27 26 26 25 25 23 21 20 19 18 17 17 16 15 15 14 13 12 12
5 5 3 4 3 4 4 3 4 3 2 4 3 2 1 4 3 3 4 1 3 6 5 3 2 2 6 7 6 8 10 9 9 9 10 10 10 11 11 12 10 9 9 9 10 9 8 8 10 15 18 19 21 24 26 27 26 26 28 28 29 29 29 28 27 28 28 28 28 27 26 25 24 23 22 21 20 19 18 17 16 16 15 14 13 12
4 6 2 1 4 5 8 4 4 3 3 6 4 4 4 2 1 4 4 2 4 6 4 3 2 2 4 6 7 10 12 10 8 9 10 9 9 9 9 10 8 8 9 9 9 9 9 9 11 15 20 21 23 25 26 28 28 27 27 28 30 31 30 29 28 28 28 28 28 27 26 26 25 25 24 23 22 20 19 18 17 16 14 13 12 12
4 7 3 4 3 3 9 9 9 5 3 5 4 5 5 4 4 5 4 4 5 5 3 1 2 3 3 5 7 9 9 7 6 8 8 8 9 7 7 7 8 9 10 9 10 11 10 11 14 18 20 22 24 25 27 28 28 28 28 29 30 30 30 29 29 29 29 29 28 27 27 26 26 26 25 23 22 21 20 19 17 16 14 13 11 10
3 7 6 3 1 5 6 6 6 3 1 3 3 4 2 5 5 4 3 5 3 2 3 2 3 4 4 6 6 4 7 7 6 6 5 7 8 6 6 7 9 9 10 10 10 11 11 12 16 19 20 23 24 25 27 28 28 29 30 30 31 30 30 29 30 30 30 30 29 28 27 27 26 26 25 24 23 21 20 18 17 15 13 13 13 11
2 6 5 5 3 5 5 2 2 3 1 1 2 2 4 4 6 2 3 1 2 2 5 2 3 5 3 6 6 5 8 8 7 6 3 5 5 5 7 8 8 9 10 11 12 12 12 12 15 19 21 23 23 25 27 29 31 32 31 30 30 29 29 29 30 30 29 29 28 28 27 27 26 26 25 25 23 21 19 17 15 13 14 15 14 13
3 6 5 5 9 8 3 3 2 4 5 3 2 5 3 2 3 1 2 3 2 4 5 1 4 4 2 4 6 6 8 10 9 8 5 4 3 6 7 7 9 9 10 11 10 10 11 11 15 19 21 23 26 27 29 30 31 31 30 31 30 29 30 30 30 30 29 29 28 28 28 27 27 27 26 25 22 20 18 16 16 17 19 19 15 12
1 5 5 4 6 7 3 2 3 4 2 3 3 4 3 1 2 1 1 2 2 4 5 3 4 4 4 5 4 4 8 10 10 8 6 6 6 7 8 8 8 7 7 8 8 8 9 10 14 19 21 23 26 27 28 29 28 28 29 29 29 30 31 31 30 30 30 30 29 28 28 27 27 26 25 24 22 19 18 19 20 21 21 19 15 14
1 2 5 4 3 4 5 2 2 5 4 3 1 1 1 3 4 2 2 3 3 4 3 4 5 3 5 6 6 9 11 10 10 8 7 10 10 8 8 8 7 7 7 8 8 9 9 10 14 20 22 24 26 27 26 25 25 27 27 27 28 28 28 28 29 29 29 29 29 29 28 27 26 25 24 23 21 19 20 22 22 20 20 19 17 16
2 1 4 6 6 4 3 1 2 0 3 3 2 3 4 2 1 1 1 3 3 3 3 4 5 5 6 5 8 11 11 11 11 10 10 11 10 9 8 7 7 8 8 8 8 9 9 10 13 19 22 23 25 24 23 23 25 25 26 26 27 27 26 26 27 28 28 28 28 28 27 26 26 24 23 22 20 19 21 22 21 19 19 18 18 18
2 2 3 5 5 3 5 5 1 2 4 2 0 2 4 3 3 3 4 1 1 2 4 3 5 6 5 4 8 10 10 10 10 10 11 10 10 9 7 7 7 7 8 8 8 9 9 9 12 17 19 20 20 21 22 23 24 24 25 26 27 26 27 27 27 28 28 27 27 27 26 26 25 24 23 21 19 19 21 22 21 20 19 18 18 18
1 0 2 5 4 4 9 9 4 5 4 3 4 4 4 4 4 2 4 4 3 2 2 1 4 7 5 2 4 7 6 6 6 7 10 9 8 8 7 7 7 7 8 7 7 8 8 8 12 15 17 19 20 21 22 23 24 25 26 26 26 27 28 28 28 28 27 27 27 26 26 25 24 24 23 21 21 21 21 21 21 21 20 19 19 18
1 1 2 5 5 4 8 7 3 3 3 6 4 5 5 4 4 1 4 3 3 3 1 1 4 6 5 5 5 6 7 8 7 7 9 9 6 6 7 7 7 7 7 6 7 7 6 7 10 12 14 17 19 20 22 23 24 25 26 26 27 28 28 28 27 27 26 27 27 26 25 25 24 24 24 22 22 23 22 21 21 21 20 20 20 20
2 1 2 4 6 6 6 5 5 5 5 3 1 3 5 5 6 3 2 1 1 3 1 1 4 6 6 7 8 9 11 10 9 7 7 8 7 6 6 5 5 5 5 6 7 6 6 8 9 9 12 16 18 20 22 23 24 26 27 27 28 28 28 27 26 26 26 26 26 25 25 25 25 25 24 23 24 24 22 21 21 21 20 20 20 20
1 1 1 1 3 4 4 3 3 4 4 1 2 2 4 6 7 4 2 3 2 4 4 2 5 6 9 11 12 13 15 13 11 10 8 8 7 7 6 6 5 5 5 6 6 6 7 7 7 8 11 15 18 20 22 24 25 26 27 27 28 28 27 26 25 25 25 25 25 25 25 25 25 25 25 24 24 24 23 22 21 20 20 19 19 19
2 0 2 4 4 5 6 6 4 1 3 5 7 5 1 3 2 3 1 2 3 4 6 5 5 7 13 15 13 14 15 13 10 9 9 8 9 8 7 6 6 6 5 5 5 5 6 7 8 10 12 16 19 21 23 25 26 26 26 27 28 27 27 26 26 25 25 25 25 25 25 26 26 26 25 24 24 24 23 22 21 20 20 19 19 19
2 2 4 6 7 7 6 6 4 2 3 6 10 10 3 4 4 3 2 4 1 4 7 6 5 9 14 15 12 12 14 11 8 8 8 7 8 9 9 6 4 6 6 5 6 7 8 9 10 9 11 16 19 21 23 25 25 26 26 26 26 26 26 26 26 26 26 25 25 26 27 27 27 26 25 24 24 24 23 23 22 20 19 19 20 20
1 4 5 4 5 6 4 5 5 4 5 6 8 12 10 5 4 4 6 6 4 4 8 9 11 12 14 15 11 10 11 9 8 8 7 6 6 6 8 8 6 6 6 7 8 9 10 10 10 10 12 15 18 20 22 24 24 23 23 23 23 24 24 24 24 25 25 25 27 28 28 28 27 26 25 24 24 24 24 24 23 21 19 19 20 21
1 3 4 3 4 5 6 7 7 6 7 8 9 11 12 10 7 7 8 7 8 9 11 11 14 15 14 12 11 9 8 6 6 7 7 7 7 6 5 7 9 7 7 8 9 9 9 10 10 11 10 13 17 20 21 22 22 21 21 21 20 21 22 22 22 23 23 25 26 27 27 26 26 25 25 25 25 25 25 24 24 23 21 21 21 21
1 2 2 1 3 6 7 8 9 9 9 11 11 11 10 11 9 8 9 8 8 9 12 12 12 14 11 7 8 9 8 7 7 8 8 8 7 5 2 4 8 8 8 8 8 8 8 8 8 9 10 13 18 20 20 20 20 20 20 20 19 19 19 20 22 23 24 25 25 25 24 24 24 24 24 25 25 25 25 26 25 25 24 24 23 23
0 1 2 1 3 6 7 8 10 9 7 9 11 12 12 11 9 8 8 7 7 8 10 9 9 12 9 6 9 11 10 10 11 9 7 7 8 5 2 3 6 7 8 8 7 7 8 8 8 9 10 13 15 17 19 20 19 19 21 20 19 18 18 19 21 23 24 24 23 23 23 22 23 23 24 24 25 25 26 26 26 26 26 25 25 24
3 2 2 1 2 6 7 6 5 4 5 5 8 12 14 12 10 11 11 11 11 10 8 7 8 10 9 8 10 12 11 11 13 11 8 7 7 6 4 3 5 6 6 8 7 7 7 7 7 9 11 13 15 18 21 21 20 22 24 21 18 17 17 18 20 22 23 23 22 22 22 22 22 23 24 25 25 25 25 26 26 27 26 26 25 25
4 5 3 2 2 6 7 2 2 2 5 6 6 7 10 10 11 13 12 11 11 7 6 8 9 8 7 8 11 13 13 12 14 14 10 7 6 7 7 5 5 5 4 5 6 6 6 5 6 9 13 15 17 18 19 18 19 21 21 18 16 16 16 18 19 21 22 22 22 22 22 22 22 24 24 24 24 25 25 26 26 26 26 25 25 24
4 4 3 2 2 5 5 4 1 5 6 6 7 6 7 9 10 10 10 10 10 9 9 12 13 11 10 10 11 13 14 13 13 13 12 10 8 8 8 7 7 5 3 3 3 5 5 5 7 10 13 14 15 15 15 15 17 17 16 15 15 16 17 18 20 21 22 22 22 22 22 22 23 23 23 23 23 24 25 26 26 25 25 24 24 24
6 4 2 2 2 2 2 1 3 5 6 9 11 9 5 4 4 6 8 9 9 9 11 12 14 14 13 12 12 12 13 13 10 9 12 13 11 9 8 8 8 8 8 7 5 3 3 5 7 10 12 13 14 13 12 12 12 11 10 11 11 13 14 16 18 20 21 21 21 22 21 21 22 22 22 22 22 23 24 26 25 24 24 23 23 23
6 4 2 3 3 2 3 3 2 4 9 10 7 3 1 1 2 2 4 7 7 7 9 11 13 15 13 13 13 11 9 9 8 9 11 12 12 11 10 9 8 8 7 7 10 12 9 5 6 9 12 14 15 16 15 13 12 11 10 9 7 7 8 10 13 15 16 17 18 19 19 19 20 21 21 22 22 23 25 26 26 25 23 23 23 22
7 5 4 4 3 2 2 4 2 3 5 7 5 2 1 1 1 2 3 7 6 4 7 8 11 13 12 11 12 10 7 6 9 11 10 10 12 12 11 10 8 7 8 9 10 14 17 12 7 8 12 14 14 15 15 14 13 12 10 8 5 4 4 6 9 10 12 15 16 16 16 17 18 19 21 22 24 25 26 27 26 25 23 22 22 21
6 5 5 4 3 1 2 4 3 3 6 8 6 4 3 4 4 3 4 6 3 3 5 7 8 10 10 10 10 8 6 6 9 9 6 7 10 10 11 12 10 10 13 15 15 15 19 21 17 15 15 17 15 15 16 14 12 10 9 6 3 0 4 6 8 11 14 17 18 18 17 16 17 19 21 23 24 25 26 27 26 24 22 21 21 20
3 2 3 5 6 5 5 5 3 4 7 8 6 5 6 6 4 2 3 3 2 4 6 8 10 11 8 8 9 7 5 7 9 8 8 8 9 9 11 13 11 12 15 19 22 24 25 27 27 24 22 23 24 23 22 18 14 11 8 6 4 2 4 6 7 9 13 16 18 20 20 18 17 19 21 23 24 25 25 25 24 23 21 20 20 19
2 1 3 5 6 6 6 6 4 4 7 8 7 7 5 1 1 2 4 4 4 7 7 7 10 12 9 8 7 6 7 9 9 11 12 13 13 11 10 13 16 17 18 19 23 25 25 27 28 26 25 27 27 25 23 20 19 17 15 12 9 7 6 6 7 8 10 12 15 18 19 19 19 19 21 23 24 24 24 24 23 21 20 19 19 19
1 1 2 4 4 4 4 4 5 6 5 4 3 3 1 2 2 4 5 6 9 11 10 9 11 12 10 8 6 6 9 11 10 10 12 14 15 15 12 12 14 16 16 16 18 19 19 21 22 22 22 24 26 24 22 21 20 18 14 10 9 8 8 8 9 9 9 10 13 16 18 19 19 19 20 22 22 23 23 23 22 21 19 18 18 19
4 3 2 3 4 3 3 4 5 5 3 1 3 3 1 2 3 4 6 10 12 11 11 11 10 10 9 9 8 7 10 13 13 10 10 12 14 16 15 12 11 12 13 14 16 18 19 18 19 21 22 24 26 25 24 23 20 15 11 10 9 9 9 9 9 9 9 10 13 14 16 17 17 17 19 21 22 23 23 22 21 20 19 18 18 19
4 4 3 3 3 4 4 5 5 5 4 2 2 1 4 5 5 5 6 10 12 10 9 10 10 9 8 10 11 10 10 11 12 12 12 13 13 14 13 12 11 12 13 15 17 21 22 18 18 21 23 25 27 26 24 21 18 15 13 12 10 9 8 8 8 9 9 10 11 11 12 14 15 15 17 19 20 22 22 21 19 19 19 18 18 18
5 5 4 4 4 4 5 6 5 4 5 5 4 5 6 7 6 5 7 9 10 9 7 8 11 11 9 10 12 12 11 10 11 11 11 13 13 13 13 12 11 12 13 14 17 21 23 22 22 22 21 22 24 24 22 20 18 14 12 12 10 8 7 6 7 8 9 10 9 7 8 11 14 16 17 17 18 20 20 19 18 18 18 17 17 18
4 4 3 2 3 3 5 7 7 8 10 10 9 6 5 6 7 7 8 9 8 8 8 8 11 12 11 11 11 11 11 11 11 11 11 11 11 11 11 10 10 11 12 12 15 19 22 23 23 22 19 18 21 23 22 18 14 12 14 15 12 10 9 9 9 8 8 8 8 6 4 6 9 11 13 14 15 16 16 16 16 16 16 16 16 17
3 4 5 4 3 3 6 5 5 7 8 7 6 6 7 10 11 8 7 8 8 9 9 10 11 12 11 11 10 11 13 13 12 11 11 9 9 9 9 8 7 7 7 9 12 16 19 19 19 19 19 19 21 22 20 16 14 17 19 18 15 13 13 12 12 12 11 9 8 6 6 6 6 6 7 8 10 12 12 13 14 14 14 15 15 16
3 3 6 7 6 8 11 9 5 6 8 6 6 8 9 11 12 9 7 7 8 9 10 11 11 11 10 9 9 9 12 12 12 12 10 7 6 6 6 7 5 4 9 11 13 15 16 15 15 16 17 19 21 21 19 19 21 21 21 19 17 16 15 13 13 13 14 14 13 12 11 11 10 8 6 5 6 7 7 8 10 11 12 13 14 14
2 3 4 4 5 9 12 11 7 9 11 9 8 9 9 8 10 9 8 8 10 11 11 11 10 9 9 10 9 7 8 10 10 11 9 5 4 4 3 5 6 1 8 13 14 16 16 14 12 11 10 12 16 18 19 19 19 20 21 20 18 16 14 12 12 14 15 15 14 13 13 13 12 11 10 9 7 5 3 1 3 5 6 7 9 10
5 7 5 3 6 10 11 8 5 7 10 8 7 9 10 8 7 8 9 10 11 11 11 12 11 10 9 11 9 5 5 7 8 8 7 5 4 5 2 1 5 4 4 10 12 14 15 15 13 10 6 7 9 11 13 14 17 20 21 19 17 14 12 12 13 14 15 14 13 13 12 12 11 10 10 10 9 8 6 4 3 3 3 2 3 5
8 9 7 7 11 13 12 9 6 6 8 9 9 11 12 9 8 9 11 11 12 12 11 11 11 11 10 11 9 5 4 4 6 8 7 4 4 6 4 1 2 3 2 7 11 11 11 12 13 12 10 9 10 12 14 14 18 21 20 18 16 14 13 14 14 14 14 13 12 12 12 11 11 9 8 8 8 7 6 5 3 3 3 3 1 1
Wind_Direction
101 257 265 236 234 220 211 210 216 224 180 200 290 237 251 263 277 277 269 264 157 170 248 213 220 246 252 252 213 183 184 209 224 216 217 223 224 218 217 229 222 224 235 215 211 218 214 212 212 211 210 211 210 209 210 210 211 212 210 208 205 203 207 206 201 201 201 194 190 194 199 209 219 226 234 238 236 232 230 234 244 245 240 248 255 252
5 248 245 233 226 219 212 207 217 246 243 259 266 288 289 237 263 279 274 281 189 166 270 213 212 255 256 255 206 172 188 213 211 208 213 214 218 215 214 227 226 222 208 172 191 200 203 206 205 206 206 207 209 209 209 209 211 212 210 209 206 204 205 206 203 202 204 202 200 206 212 220 226 226 229 235 236 235 235 237 242 243 239 243 249 249
292 260 255 242 205 201 208 182 188 213 219 243 206 323 298 246 272 282 274 295 206 170 265 204 195 253 256 236 207 197 203 219 211 207 213 208 208 209 208 220 227 223 208 199 194 182 194 199 199 201 201 205 212 212 211 211 212 212 210 209 208 206 206 204 206 208 212 214 214 220 227 230 234 235 233 234 235 231 233 239 242 245 241 236 237 240
247 255 256 231 166 183 225 163 155 196 268 214 185 190 273 253 282 276 279 347 71 195 233 183 202 266 273 262 235 221 218 238 229 219 225 211 207 213 209 214 222 221 217 213 202 181 187 192 195 199 199 203 208 210 212 211 212 213 212 210 208 208 208 207 210 214 217 221 221 223 233 238 239 242 236 232 233 230 232 237 239 242 241 236 233 231
240 240 226 102 145 167 225 234 166 221 288 236 196 199 245 252 216 225 271 351 341 301 137 119 7 305 280 259 254 244 231 249 242 223 235 228 212 210 207 214 219 219 219 214 208 191 181 188 193 197 200 201 203 207 211 212 212 212 213 213 211 210 211 212 214 216 219 223 222 220 228 238 243 249 248 241 240 238 237 239 240 241 241 239 235 231
251 235 188 249 231 171 208 263 207 180 251 289 222 206 224 252 247 236 275 357 6 321 256 144 113 289 293 262 256 276 235 235 223 214 232 230 213 200 205 215 214 213 214 215 216 198 181 185 189 195 200 200 202 207 211 213 212 211 212 213 213 213 213 215 216 216 219 223 224 221 222 228 234 244 250 250 251 254 255 257 255 248 242 241 240 238
260 236 183 222 239 201 211 254 214 166 159 292 239 203 207 234 253 254 254 123 188 269 275 115 163 255 314 290 259 270 233 239 232 229 238 232 219 214 213 214 208 205 205 210 215 201 184 184 185 193 199 200 205 208 209 212 212 211 212 212 212 214 215 215 215 215 218 220 223 225 226 229 233 243 253 260 265 271 274 276 273 264 255 250 247 244
217 214 200 207 211 203 212 247 220 164 140 243 248 224 234 240 247 254 225 191 232 259 313 14 130 229 290 270 276 311 230 263 266 243 244 233 225 223 221 219 209 203 198 199 206 201 196 191 190 195 199 201 206 208 208 209 212 212 212 213 213 214 216 215 213 215 217 218 221 225 229 235 243 252 262 270 276 282 284 283 282 278 270 259 253 247
173 184 208 193 198 212 215 230 203 152 144 244 254 296 312 255 246 250 214 214 268 319 299 313 113 224 266 267 316 22 219 272 265 243 241 231 226 223 222 224 216 205 197 194 198 201 202 198 198 200 201 202 204 207 210 211 212 213 213 214 214 215 217 216 214 216 218 220 222 225 228 236 245 251 257 263 269 277 281 281 282 282 272 260 254 250
231 209 196 165 178 215 224 229 185 155 194 242 246 338 19 41 40 48 178 185 19 325 251 252 186 221 273 273 314 35 226 258 255 249 243 232 229 225 222 224 218 205 195 196 199 201 204 204 204 202 199 200 202 206 212 213 212 213 214 214 214 216 217 217 217 217 218 220 223 226 230 236 242 245 247 251 256 263 267 268 270 274 272 264 257 252
274 294 164 157 194 201 213 231 187 180 215 255 359 324 347 12 26 34 82 116 103 269 246 228 198 193 272 275 225 195 214 221 228 250 255 239 231 229 226 224 216 203 194 197 199 202 205 205 203 199 196 197 199 203 208 212 213 212 214 215 216 217 217 218 219 219 221 222 224 228 232 237 241 242 242 244 249 254 257 258 260 265 269 266 261 255
295 318 242 251 236 181 184 259 240 188 198 104 54 15 342 331 357 14 357 57 187 257 265 246 200 167 235 268 234 233 251 229 213 232 245 237 226 223 222 219 213 202 195 192 195 200 195 190 190 190 194 195 193 197 203 208 211 212 214 216 217 219 219 219 220 221 223 224 226 229 233 237 240 241 241 243 246 250 253 257 258 260 264 265 262 255
294 258 257 291 262 171 163 260 309 358 98 138 126 98 358 303 333 332 296 275 219 249 250 218 181 171 236 255 243 245 261 246 221 226 237 239 232 224 218 215 208 194 189 189 192 195 186 181 184 187 192 192 191 194 199 204 208 211 213 215 217 221 221 221 221 222 223 224 226 229 231 235 238 240 241 243 247 249 253 256 256 256 259 264 263 256
296 288 289 280 275 197 168 192 269 280 188 171 169 168 181 199 268 267 266 270 265 267 250 195 215 277 271 271 237 228 247 242 224 236 243 246 246 237 225 215 202 188 188 189 189 189 189 189 189 190 192 192 194 196 198 201 205 208 212 214 217 221 223 222 223 223 224 225 228 229 231 234 236 238 240 243 247 250 253 256 255 256 258 262 264 259
262 296 244 191 270 198 179 202 220 215 184 190 166 148 168 161 192 236 230 228 255 282 284 228 207 197 200 262 239 224 257 261 234 244 248 254 257 249 237 212 191 188 188 188 190 190 191 191 191 193 194 196 198 196 197 200 202 205 210 213 216 219 221 222 223 224 225 227 229 230 231 233 235 238 240 243 248 251 253 255 256 257 260 264 268 262
241 268 247 241 23 151 190 229 207 156 13 244 139 104 208 183 182 228 204 191 205 281 277 216 218 215 201 265 276 270 292 284 255 255 252 261 262 234 220 208 191 192 187 184 190 192 191 191 193 193 194 198 200 197 197 199 201 204 209 213 217 219 220 221 223 225 227 229 229 230 231 233 235 236 239 242 248 251 252 254 256 262 267 269 269 264
269 268 278 318 329 183 205 242 167 161 194 254 120 176 236 166 151 222 283 18 88 251 266 193 235 285 311 289 303 327 302 292 290 287 274 274 263 210 208 207 196 194 189 189 192 190 187 187 193 195 195 197 197 197 200 202 204 206 208 211 215 218 219 221 223 226 228 229 229 230 231 232 234 235 238 242 246 249 249 250 253 255 249 241 240 248
266 277 271 270 275 268 225 158 206 207 162 136 220 216 215 88 104 139 278 334 41 251 273 203 216 260 279 273 315 335 293 280 281 281 291 294 243 211 217 211 206 200 191 193 191 185 185 184 190 194 195 198 199 200 204 206 207 208 209 211 212 214 218 221 223 226 229 229 230 231 231 233 234 235 238 240 244 246 244 244 242 237 233 228 226 235
302 295 276 250 268 299 347 121 268 285 185 177 222 189 136 188 273 70 181 237 248 256 284 297 257 242 202 228 284 275 250 254 261 269 283 267 228 218 224 214 211 203 186 187 185 184 188 187 190 191 193 198 201 204 207 208 208 209 210 212 212 215 219 221 223 225 228 230 231 233 234 234 235 236 237 237 239 239 237 240 240 235 234 235 231 229
343 290 282 314 331 320 349 15 270 306 329 352 351 16 83 189 196 191 180 171 194 243 276 299 294 265 223 211 206 222 229 234 246 254 256 246 230 221 219 208 204 197 190 189 185 187 189 189 193 192 192 195 200 205 207 207 209 210 212 213 213 217 219 220 222 223 226 229 231 233 234 235 236 236 236 235 234 232 234 239 241 239 238 239 237 235
348 358 267 310 336 329 334 327 188 249 345 355 343 321 317 287 208 256 243 131 155 209 233 272 277 259 246 210 190 214 227 221 223 227 231 237 235 229 216 203 201 198 197 193 186 189 190 189 192 194 195 196 199 203 204 206 209 211 212 214 215 217 217 219 221 222 225 227 229 230 231 234 235 234 234 232 226 227 235 240 241 242 242 242 243 243
357 344 272 304 332 322 278 267 251 269 262 224 119 351 334 328 344 304 280 320 66 202 193 229 274 266 253 213 198 211 220 220 221 222 229 235 235 234 222 202 200 200 202 198 190 188 186 185 188 190 193 193 195 198 201 206 208 209 213 215 216 217 219 221 222 222 225 225 226 229 230 232 233 232 232 225 216 222 235 238 239 241 242 242 242 242
236 356 300 285 266 254 270 277 297 286 261 116 81 28 13 25 36 351 282 304 321 297 196 187 290 273 268 302 261 253 262 268 259 235 234 241 237 235 230 210 203 206 208 202 194 191 187 185 184 184 186 189 193 197 200 204 207 210 214 215 215 218 221 224 224 225 225 224 225 228 229 231 231 230 230 219 209 220 232 234 236 239 240 240 241 239
309 36 344 296 274 272 280 287 328 351 56 73 42 21 37 34 24 315 253 265 275 286 301 290 277 269 295 0 341 313 330 328 304 264 243 247 247 242 239 227 218 215 207 198 198 196 181 173 176 180 185 188 192 196 199 203 208 211 214 214 215 219 224 225 225 225 224 223 225 226 226 228 229 229 228 216 210 222 232 233 235 239 240 242 241 240
316 345 17 341 324 322 327 341 350 358 35 56 295 20 39 18 9 354 293 347 297 268 297 245 248 263 298 342 350 351 1 354 330 311 277 258 248 236 234 235 238 236 218 199 191 182 174 176 179 185 188 189 190 194 198 203 208 211 213 214 217 221 224 224 222 223 223 223 224 224 224 227 227 227 227 217 213 224 234 234 236 239 242 243 241 239
230 227 83 24 312 298 306 314 302 308 341 335 253 354 33 22 17 19 3 358 297 294 339 299 252 281 308 324 340 352 356 351 344 342 326 292 271 248 226 208 209 223 225 213 197 180 179 183 185 189 191 192 193 193 197 203 208 211 213 215 219 221 221 221 220 221 222 222 222 223 224 226 226 227 227 219 215 224 233 235 236 239 242 243 241 240
137 311 205 186 210 235 239 240 233 258 311 299 298 309 98 114 62 75 58 296 263 301 315 263 247 306 313 314 331 343 340 336 336 343 343 327 310 291 264 223 188 185 197 204 204 193 184 185 191 195 196 196 196 196 200 204 207 208 211 215 219 221 219 218 217 218 220 221 222 223 225 227 228 229 229 222 217 224 232 235 237 241 242 242 243 244
88 297 246 209 226 233 220 229 235 224 249 273 294 300 265 163 139 122 195 236 242 314 291 268 292 312 299 300 321 331 325 323 325 332 335 323 314 307 295 274 213 186 179 176 189 199 197 197 198 197 198 199 199 200 203 206 208 209 210 215 217 218 219 216 213 214 217 219 221 224 228 230 230 231 231 225 219 223 230 234 239 243 244 244 244 246
89 268 247 217 245 249 232 237 236 228 239 245 263 279 280 255 195 194 220 203 171 245 268 283 300 293 286 295 309 311 307 308 309 308 306 306 319 324 309 289 258 221 194 184 195 204 206 207 201 198 202 200 199 201 204 206 209 210 212 216 216 216 217 215 212 211 212 215 221 226 229 230 230 230 230 225 218 219 226 231 236 242 244 246 248 248
173 257 248 226 271 277 267 267 264 257 258 254 247 254 266 269 243 227 236 210 189 223 251 269 281 277 275 284 289 284 284 288 295 302 310 321 329 337 321 291 274 257 226 209 205 203 209 214 208 201 200 199 200 203 204 204 206 209 212 215 216 217 216 215 213 212 212 216 223 228 230 230 230 229 228 225 218 217 222 226 229 234 238 242 248 251
193 245 266 253 288 278 267 265 264 258 256 261 262 255 254 267 264 248 246 226 195 222 240 240 257 269 270 272 277 282 289 293 296 306 316 314 309 316 318 283 278 275 261 244 225 208 208 218 220 211 201 202 204 203 203 204 205 210 215 218 219 220 219 217 217 218 218 222 227 229 229 229 229 228 228 227 222 218 218 221 223 226 230 235 241 247
166 271 312 335 285 267 251 246 254 264 274 271 270 264 252 253 258 255 250 232 206 222 232 220 234 258 258 251 268 280 291 294 289 286 289 293 296 295 276 262 271 270 267 262 250 230 217 209 214 218 211 206 204 201 203 205 205 210 216 219 219 221 221 220 221 222 225 228 230 230 229 229 228 228 228 227 225 221 217 217 218 221 224 229 235 241
182 207 279 209 243 264 262 258 263 300 317 278 252 250 247 244 249 255 256 250 240 235 232 230 239 249 245 239 255 269 273 276 278 273 265 267 278 281 277 265 260 259 257 253 244 235 230 221 211 212 211 204 199 202 206 205 205 214 220 220 220 221 223 223 225 228 230 232 232 232 232 231 228 228 229 227 226 223 218 214 215 219 223 228 232 236
181 198 226 176 193 263 280 329 47 291 272 256 240 237 236 235 239 246 254 261 258 248 243 255 266 271 259 241 245 254 254 251 256 258 252 242 251 275 285 271 254 251 252 250 243 225 216 219 214 208 207 205 203 208 211 211 214 221 225 225 223 223 226 228 229 233 235 236 237 237 236 233 230 230 231 229 225 222 219 217 218 221 225 227 229 232
193 194 217 186 188 259 301 27 59 241 241 258 283 274 238 231 239 253 268 276 273 270 269 273 276 273 263 252 247 251 254 251 249 249 246 239 241 259 264 250 237 227 203 210 251 242 216 199 198 200 198 195 196 200 203 209 218 225 229 230 228 227 230 232 234 237 240 240 241 241 238 235 232 232 231 229 225 222 222 222 222 223 226 228 229 233
209 186 191 205 193 253 297 144 201 242 269 284 289 285 258 247 266 280 285 275 264 264 266 268 272 271 268 265 259 255 260 265 264 254 247 243 240 240 239 232 222 208 195 181 172 191 240 235 205 186 175 168 167 167 171 180 190 196 201 209 216 220 224 228 233 238 241 242 243 243 240 236 233 232 231 228 224 222 223 225 225 225 227 229 232 235
197 172 172 215 208 201 230 225 227 305 304 289 279 283 298 286 259 256 287 280 260 253 261 267 273 277 276 273 271 271 274 279 280 264 247 239 233 226 224 231 226 213 211 195 167 159 168 207 217 183 162 153 148 146 145 146 149 152 154 157 170 192 209 224 236 241 246 250 251 249 245 240 236 233 231 227 223 223 225 227 226 225 225 228 231 234
192 180 166 195 214 179 218 265 296 326 287 262 253 261 250 252 106 101 302 290 274 264 278 284 287 291 296 299 300 306 310 288 270 264 252 239 234 225 220 227 229 225 220 198 167 155 152 156 191 191 153 134 127 128 129 131 134 134 132 135 145 174 216 244 258 265 270 271 270 267 260 251 243 238 233 228 225 226 226 227 226 224 224 227 230 235
183 185 158 179 229 192 184 243 241 232 252 254 254 262 269 294 325 357 329 300 306 355 345 338 330 320 321 325 320 321 315 276 264 271 277 258 243 229 222 223 218 214 208 189 177 174 163 160 178 184 154 136 135 136 133 130 124 114 107 107 105 332 283 284 290 294 293 290 287 284 276 265 253 244 237 233 231 230 229 227 226 224 224 226 230 236
133 166 170 198 228 225 223 245 243 235 256 258 252 265 283 294 303 327 309 277 290 354 357 350 334 324 325 327 320 314 293 273 276 303 322 301 268 242 232 231 223 215 210 199 197 199 187 176 178 179 169 164 165 160 154 149 143 137 137 141 147 207 276 292 300 298 297 297 294 287 278 270 259 249 243 239 237 234 231 229 226 223 222 224 228 232
120 160 197 215 227 220 222 244 255 253 261 262 254 259 276 317 123 217 243 250 290 320 330 330 317 310 311 314 309 297 282 279 291 312 319 308 291 273 254 245 239 232 225 218 212 205 192 182 181 180 177 173 166 159 156 153 147 148 157 164 170 184 211 239 258 269 281 293 298 293 283 271 261 254 248 244 240 235 232 229 226 223 222 222 225 229
193 169 206 214 220 217 211 229 255 271 270 252 247 261 227 122 169 223 248 281 302 309 312 310 300 297 299 295 280 276 284 289 295 301 300 297 292 285 274 258 250 246 236 225 218 208 192 181 180 177 172 167 162 158 155 150 143 143 154 171 182 191 205 224 240 250 259 273 285 292 288 274 261 254 248 244 239 234 231 228 225 224 223 222 225 228
179 180 222 203 186 191 204 216 235 254 255 118 51 18 73 185 240 271 295 300 300 303 307 301 288 285 292 289 275 271 283 292 297 297 293 290 285 280 275 262 249 243 230 215 210 205 192 181 176 173 168 165 162 158 152 147 142 140 154 176 190 199 208 220 232 240 247 256 265 274 276 266 256 250 245 241 237 232 229 226 222 221 221 221 223 226
187 182 208 217 188 176 195 215 219 221 215 174 97 175 224 239 267 289 297 297 298 303 303 294 286 279 274 279 284 284 283 288 295 301 303 300 292 284 276 260 242 233 224 214 205 194 183 174 170 168 165 163 161 158 157 156 151 150 163 174 178 187 195 201 215 226 232 239 246 255 258 252 246 243 239 237 235 231 227 222 220 219 219 219 220 222
226 201 201 230 227 204 209 227 235 238 246 257 269 263 260 269 271 266 274 286 293 297 293 287 288 285 274 273 282 284 281 280 285 293 301 302 298 292 283 264 243 230 219 208 197 185 175 168 164 161 160 161 160 160 164 163 152 153 172 181 178 179 178 172 185 204 213 217 220 227 238 238 236 236 235 234 231 228 224 220 216 214 214 214 216 219
241 205 189 225 259 271 259 245 246 262 270 273 278 275 271 279 279 277 281 281 278 283 288 285 285 285 282 278 277 279 280 281 282 285 289 293 294 295 290 272 246 226 211 196 186 180 171 164 160 156 153 157 159 158 159 158 155 169 186 184 176 174 171 159 156 163 175 188 194 194 198 208 214 220 225 227 227 226 225 222 217 213 212 213 215 219
256 207 217 241 255 277 268 241 219 240 254 266 285 288 281 282 282 277 270 267 272 281 284 282 281 283 283 279 276 279 281 281 281 282 281 283 291 300 300 282 250 212 187 174 171 170 163 157 155 153 150 154 158 158 160 169 185 192 188 178 171 171 168 155 140 131 127 129 134 136 136 139 148 165 187 204 212 216 219 221 218 215 215 216 217 219
244 207 227 240 235 243 256 259 253 259 261 263 275 281 282 281 281 277 265 267 278 281 278 277 278 279 279 276 273 281 287 285 280 275 272 277 288 298 310 302 275 183 149 149 151 150 147 145 147 148 147 150 156 164 175 185 189 189 183 175 170 167 160 148 136 126 120 117 113 107 106 108 109 111 124 151 177 191 203 214 216 217 220 223 224 224
216 204 204 224 243 252 260 267 278 284 280 268 256 261 264 264 270 279 281 280 282 283 282 282 275 267 270 272 268 278 294 295 288 275 262 260 275 275 295 317 306 247 138 139 141 138 133 127 123 125 139 156 165 176 187 188 185 183 178 171 166 162 155 147 139 134 130 125 116 109 105 104 104 103 103 110 121 125 119 151 200 213 225 234 239 242
224 233 218 225 255 256 258 257 252 267 275 270 257 264 269 267 270 281 287 288 287 286 287 287 284 278 275 272 265 259 284 304 313 301 268 241 262 276 258 305 319 327 111 127 132 130 129 130 129 136 172 210 202 193 195 192 182 177 172 167 164 164 156 147 142 140 137 130 120 115 112 107 104 103 102 103 110 112 103 94 96 106 115 151 236 254
228 234 227 229 246 253 259 254 232 234 260 269 270 273 276 278 281 284 286 286 286 285 285 289 291 292 290 283 267 239 243 299 336 336 316 291 285 285 273 271 352 351 84 125 128 126 127 132 141 159 189 216 216 206 208 204 186 174 171 170 168 162 151 144 144 145 144 137 128 122 119 113 110 109 107 104 107 112 116 112 102 94 100 108 121 245